Location: Boiro
(42.6475°N, 8.8834°W)
Time: 18:11:37
(UTC+01:00)

Tiros 1 despin weight - Pass Details

Date: 06 December 2021
Orbit: 592 x 641 km, 48.2° (Epoch: 27 January)

Event Time Altitude Azimuth Distance (km) Brightness Sun altitude
Rises 15:10:24 0° 262° (W) 2,837 ? 20.5°
Reaches altitude 10° 15:12:45 10° 267° (W) 1,930 ? 20.4°
Maximum altitude 15:17:04 52° 344° (NNW) 743 ? 20.0°
Drops below altitude 10° 15:21:22 10° 62° (ENE) 1,923 ? 19.6°
Sets 15:23:43 0° 67° (ENE) 2,825 ? 19.4°
